QPF
0.01 0.01 0.02 0.02 0.02 0.02 0.02 0.01 0.01 0.01 0.01 0.01 0.02 0.01 0.01 0.02 0.03 0.02 0.01 0.01 0.01 0.01 0.01 0.02 0.02 0.01 0.01 0.01 0.02 0.03 0.03 0.04 0.05 0.06 0.06 0.05 0.06 0.09
0.01 0.01 0.01 0.01 0.02 0.02 0.02 0.01 0.01 0.01 0.01 0.02 0.01 0.01 0.00 0.01 0.03 0.02 0.02 0.02 0.02 0.01 0.01 0.01 0.01 0.01 0.01 0.01 0.01 0.01 0.02 0.02 0.02 0.04 0.07 0.08 0.07 0.07
0.02 0.01 0.01 0.02 0.01 0.02 0.03 0.02 0.01 0.01 0.01 0.01 0.01 0.01 0.01 0.01 0.02 0.02 0.03 0.02 0.01 0.01 0.01 0.01 0.01 0.01 0.01 0.01 0.01 0.02 0.02 0.01 0.01 0.02 0.02 0.04 0.06 0.08
0.01 0.01 0.01 0.02 0.02 0.01 0.02 0.02 0.02 0.01 0.01 0.01 0.01 0.01 0.01 0.02 0.01 0.02 0.02 0.02 0.01 0.01 0.01 0.01 0.00 0.00 0.00 0.01 0.01 0.02 0.02 0.01 0.01 0.01 0.02 0.02 0.03 0.04
0.02 0.02 0.02 0.02 0.01 0.01 0.01 0.01 0.02 0.02 0.02 0.01 0.01 0.01 0.01 0.01 0.01 0.01 0.01 0.01 0.01 0.01 0.01 0.01 0.01 0.01 0.01 0.01 0.01 0.01 0.01 0.01 0.01 0.02 0.02 0.02 0.02 0.03
0.02 0.01 0.01 0.01 0.01 0.01 0.01 0.01 0.01 0.02 0.02 0.02 0.02 0.02 0.01 0.01 0.02 0.01 0.01 0.01 0.01 0.01 0.01 0.01 0.02 0.01 0.01 0.01 0.01 0.01 0.02 0.03 0.03 0.03 0.02 0.01 0.01 0.02
0.01 0.01 0.01 0.01 0.01 0.01 0.01 0.00 0.01 0.01 0.02 0.02 0.02 0.03 0.02 0.02 0.02 0.02 0.02 0.02 0.03 0.03 0.03 0.03 0.03 0.03 0.03 0.03 0.03 0.03 0.02 0.02 0.03 0.02 0.02 0.01 0.01 0.01
0.01 0.01 0.01 0.01 0.01 0.01 0.01 0.01 0.02 0.02 0.01 0.01 0.02 0.02 0.02 0.03 0.03 0.03 0.03 0.03 0.03 0.03 0.05 0.06 0.06 0.03 0.03 0.03 0.03 0.03 0.02 0.02 0.02 0.03 0.02 0.01 0.01 0.01
0.01 0.01 0.01 0.01 0.01 0.01 0.01 0.01 0.02 0.02 0.02 0.01 0.01 0.01 0.01 0.01 0.02 0.02 0.03 0.03 0.03 0.04 0.05 0.06 0.06 0.04 0.03 0.03 0.03 0.03 0.02 0.02 0.02 0.02 0.02 0.02 0.01 0.01
0.01 0.01 0.01 0.01 0.01 0.01 0.02 0.02 0.01 0.01 0.01 0.01 0.01 0.01 0.01 0.01 0.02 0.02 0.03 0.04 0.04 0.05 0.07 0.08 0.06 0.04 0.03 0.04 0.03 0.03 0.03 0.03 0.02 0.02 0.02 0.02 0.02 0.02
0.00 0.01 0.01 0.01 0.01 0.02 0.03 0.03 0.02 0.01 0.01 0.02 0.02 0.02 0.02 0.03 0.03 0.03 0.03 0.03 0.04 0.04 0.07 0.08 0.06 0.05 0.05 0.04 0.03 0.03 0.02 0.02 0.03 0.03 0.03 0.03 0.03 0.03
0.01 0.01 0.00 0.01 0.01 0.02 0.03 0.02 0.02 0.02 0.03 0.04 0.05 0.05 0.05 0.05 0.05 0.04 0.04 0.04 0.04 0.05 0.06 0.06 0.05 0.05 0.03 0.01 0.02 0.03 0.03 0.02 0.02 0.03 0.03 0.03 0.03 0.04
0.00 0.00 0.01 0.01 0.01 0.02 0.03 0.04 0.03 0.04 0.05 0.05 0.05 0.06 0.05 0.07 0.09 0.10 0.09 0.09 0.08 0.07 0.05 0.05 0.04 0.04 0.03 0.02 0.02 0.02 0.02 0.02 0.02 0.03 0.03 0.03 0.03 0.03
0.01 0.01 0.01 0.01 0.02 0.04 0.05 0.05 0.05 0.06 0.06 0.06 0.06 0.07 0.07 0.09 0.11 0.11 0.10 0.10 0.09 0.07 0.06 0.06 0.04 0.04 0.04 0.04 0.02 0.02 0.02 0.03 0.03 0.03 0.03 0.03 0.04 0.04
0.03 0.02 0.02 0.03 0.04 0.05 0.04 0.05 0.05 0.06 0.06 0.06 0.06 0.06 0.06 0.06 0.07 0.06 0.06 0.06 0.06 0.05 0.05 0.05 0.05 0.06 0.06 0.05 0.04 0.04 0.03 0.03 0.03 0.04 0.04 0.04 0.04 0.04
0.03 0.03 0.03 0.03 0.04 0.04 0.05 0.05 0.06 0.06 0.06 0.05 0.05 0.04 0.04 0.05 0.05 0.06 0.07 0.07 0.05 0.04 0.04 0.05 0.07 0.10 0.11 0.11 0.11 0.09 0.06 0.05 0.04 0.04 0.04 0.04 0.03 0.03
0.03 0.02 0.02 0.02 0.03 0.04 0.05 0.06 0.06 0.06 0.05 0.05 0.04 0.04 0.04 0.04 0.04 0.04 0.04 0.05 0.04 0.04 0.04 0.05 0.07 0.08 0.10 0.11 0.11 0.10 0.08 0.06 0.05 0.05 0.05 0.04 0.03 0.03
0.04 0.03 0.03 0.04 0.04 0.05 0.06 0.06 0.06 0.05 0.05 0.05 0.05 0.05 0.05 0.04 0.04 0.04 0.04 0.05 0.04 0.04 0.04 0.05 0.08 0.11 0.11 0.10 0.10 0.10 0.08 0.07 0.06 0.06 0.05 0.04 0.03 0.02
0.05 0.07 0.07 0.08 0.08 0.08 0.08 0.07 0.06 0.05 0.05 0.06 0.05 0.05 0.05 0.06 0.05 0.05 0.05 0.06 0.06 0.06 0.06 0.06 0.08 0.09 0.09 0.07 0.06 0.08 0.09 0.09 0.09 0.07 0.04 0.04 0.04 0.03
0.04 0.07 0.08 0.11 0.13 0.12 0.11 0.08 0.06 0.07 0.07 0.07 0.08 0.08 0.08 0.09 0.09 0.08 0.07 0.06 0.05 0.05 0.05 0.05 0.07 0.07 0.08 0.07 0.06 0.05 0.07 0.09 0.10 0.09 0.06 0.04 0.03 0.03
0.04 0.06 0.07 0.09 0.12 0.12 0.11 0.10 0.08 0.08 0.07 0.07 0.07 0.08 0.08 0.09 0.08 0.06 0.05 0.05 0.04 0.04 0.04 0.03 0.03 0.05 0.06 0.06 0.05 0.05 0.06 0.08 0.09 0.10 0.09 0.07 0.05 0.03
0.04 0.05 0.06 0.07 0.09 0.09 0.09 0.10 0.10 0.09 0.09 0.08 0.08 0.08 0.08 0.08 0.08 0.07 0.06 0.05 0.04 0.03 0.03 0.04 0.05 0.06 0.06 0.05 0.04 0.05 0.06 0.07 0.08 0.10 0.13 0.12 0.08 0.05
0.05 0.04 0.04 0.04 0.04 0.06 0.08 0.10 0.10 0.09 0.08 0.07 0.07 0.08 0.08 0.08 0.08 0.08 0.07 0.06 0.05 0.05 0.05 0.06 0.06 0.06 0.05 0.05 0.05 0.04 0.05 0.07 0.08 0.09 0.10 0.11 0.10 0.07
MSLP
1015.27 1015.46 1015.71 1015.96 1016.18 1016.30 1016.32 1016.22 1016.02 1015.77 1015.52 1015.31 1015.17 1015.15 1015.22 1015.38 1015.59 1015.83 1016.06 1016.29 1016.49 1016.67 1016.83 1017.00 1017.16 1017.32 1017.47 1017.58 1017.64 1017.63 1017.55 1017.39 1017.19 1016.95 1016.70 1016.47 1016.27 1016.12
1014.76 1014.92 1015.13 1015.37 1015.58 1015.73 1015.80 1015.77 1015.66 1015.50 1015.34 1015.21 1015.15 1015.17 1015.27 1015.45 1015.67 1015.92 1016.16 1016.40 1016.61 1016.81 1017.00 1017.18 1017.35 1017.52 1017.65 1017.74 1017.78 1017.74 1017.63 1017.46 1017.24 1016.99 1016.74 1016.51 1016.32 1016.17
1014.28 1014.39 1014.57 1014.78 1014.99 1015.16 1015.27 1015.31 1015.29 1015.24 1015.17 1015.14 1015.15 1015.22 1015.37 1015.56 1015.79 1016.04 1016.29 1016.52 1016.74 1016.95 1017.15 1017.34 1017.52 1017.68 1017.81 1017.90 1017.92 1017.87 1017.75 1017.57 1017.34 1017.10 1016.85 1016.63 1016.45 1016.30
1013.84 1013.92 1014.06 1014.24 1014.43 1014.61 1014.75 1014.86 1014.92 1014.95 1014.99 1015.03 1015.12 1015.25 1015.42 1015.63 1015.87 1016.11 1016.35 1016.59 1016.81 1017.03 1017.24 1017.44 1017.63 1017.81 1017.94 1018.03 1018.06 1018.01 1017.90 1017.73 1017.51 1017.27 1017.04 1016.82 1016.64 1016.50
1013.45 1013.49 1013.58 1013.72 1013.89 1014.07 1014.24 1014.38 1014.51 1014.62 1014.73 1014.85 1014.99 1015.17 1015.37 1015.59 1015.82 1016.05 1016.29 1016.52 1016.75 1016.98 1017.20 1017.43 1017.65 1017.86 1018.02 1018.14 1018.19 1018.17 1018.08 1017.93 1017.73 1017.52 1017.30 1017.09 1016.91 1016.76
1013.06 1013.05 1013.10 1013.20 1013.34 1013.51 1013.68 1013.86 1014.03 1014.20 1014.36 1014.54 1014.73 1014.93 1015.14 1015.37 1015.59 1015.82 1016.05 1016.28 1016.52 1016.77 1017.03 1017.30 1017.56 1017.81 1018.03 1018.19 1018.29 1018.32 1018.27 1018.16 1018.00 1017.81 1017.61 1017.41 1017.24 1017.08
1012.58 1012.53 1012.54 1012.60 1012.72 1012.87 1013.05 1013.25 1013.45 1013.66 1013.87 1014.08 1014.30 1014.52 1014.74 1014.96 1015.18 1015.41 1015.63 1015.87 1016.13 1016.41 1016.71 1017.03 1017.36 1017.67 1017.95 1018.19 1018.35 1018.44 1018.45 1018.39 1018.27 1018.12 1017.94 1017.76 1017.59 1017.44
1011.92 1011.85 1011.84 1011.89 1011.99 1012.14 1012.33 1012.54 1012.77 1013.00 1013.25 1013.49 1013.73 1013.96 1014.18 1014.41 1014.62 1014.84 1015.08 1015.33 1015.61 1015.93 1016.28 1016.65 1017.05 1017.43 1017.79 1018.10 1018.34 1018.51 1018.58 1018.59 1018.52 1018.41 1018.26 1018.11 1017.95 1017.80
1011.06 1010.99 1010.98 1011.03 1011.14 1011.30 1011.51 1011.74 1012.00 1012.27 1012.54 1012.81 1013.06 1013.31 1013.54 1013.76 1013.97 1014.20 1014.43 1014.70 1015.01 1015.36 1015.76 1016.20 1016.66 1017.11 1017.55 1017.94 1018.25 1018.49 1018.64 1018.71 1018.71 1018.64 1018.54 1018.42 1018.29 1018.17
1010.00 1009.96 1009.97 1010.05 1010.19 1010.39 1010.63 1010.90 1011.20 1011.50 1011.80 1012.10 1012.37 1012.63 1012.87 1013.09 1013.31 1013.53 1013.78 1014.06 1014.39 1014.77 1015.21 1015.69 1016.20 1016.72 1017.22 1017.67 1018.06 1018.36 1018.59 1018.73 1018.79 1018.79 1018.75 1018.68 1018.59 1018.50
1008.81 1008.82 1008.89 1009.02 1009.21 1009.46 1009.75 1010.07 1010.41 1010.76 1011.09 1011.41 1011.71 1011.98 1012.23 1012.46 1012.68 1012.91 1013.15 1013.44 1013.78 1014.18 1014.64 1015.14 1015.69 1016.24 1016.79 1017.29 1017.74 1018.11 1018.40 1018.60 1018.74 1018.81 1018.84 1018.84 1018.82 1018.78
1007.59 1007.66 1007.80 1008.00 1008.26 1008.57 1008.92 1009.29 1009.67 1010.06 1010.43 1010.78 1011.10 1011.39 1011.65 1011.88 1012.10 1012.33 1012.57 1012.86 1013.19 1013.59 1014.05 1014.56 1015.12 1015.69 1016.26 1016.79 1017.28 1017.70 1018.05 1018.32 1018.53 1018.69 1018.80 1018.88 1018.93 1018.98
1006.42 1006.57 1006.78 1007.05 1007.38 1007.74 1008.14 1008.56 1008.98 1009.40 1009.80 1010.18 1010.52 1010.83 1011.10 1011.34 1011.56 1011.78 1012.02 1012.29 1012.61 1012.99 1013.43 1013.93 1014.48 1015.04 1015.61 1016.17 1016.68 1017.14 1017.54 1017.88 1018.16 1018.40 1018.59 1018.76 1018.91 1019.05
1005.35 1005.56 1005.84 1006.16 1006.54 1006.95 1007.39 1007.84 1008.29 1008.74 1009.16 1009.57 1009.93 1010.25 1010.54 1010.79 1011.02 1011.24 1011.46 1011.72 1012.01 1012.37 1012.78 1013.25 1013.76 1014.31 1014.87 1015.42 1015.94 1016.43 1016.87 1017.27 1017.62 1017.93 1018.22 1018.48 1018.72 1018.95
1004.35 1004.60 1004.92 1005.28 1005.69 1006.13 1006.58 1007.05 1007.53 1008.00 1008.45 1008.87 1009.26 1009.61 1009.92 1010.19 1010.42 1010.64 1010.86 1011.10 1011.38 1011.70 1012.08 1012.51 1012.99 1013.50 1014.04 1014.58 1015.10 1015.61 1016.08 1016.52 1016.93 1017.31 1017.67 1018.02 1018.34 1018.65
1003.32 1003.60 1003.93 1004.31 1004.73 1005.17 1005.64 1006.12 1006.61 1007.10 1007.57 1008.03 1008.45 1008.84 1009.18 1009.48 1009.74 1009.98 1010.20 1010.43 1010.69 1010.99 1011.33 1011.73 1012.17 1012.65 1013.16 1013.68 1014.20 1014.71 1015.20 1015.68 1016.13 1016.56 1016.98 1017.39 1017.78 1018.15
1002.17 1002.44 1002.77 1003.14 1003.55 1003.99 1004.46 1004.95 1005.46 1005.97 1006.48 1006.98 1007.45 1007.89 1008.29 1008.64 1008.94 1009.21 1009.46 1009.71 1009.96 1010.25 1010.57 1010.94 1011.35 1011.80 1012.29 1012.79 1013.30 1013.81 1014.30 1014.79 1015.27 1015.74 1016.19 1016.64 1017.07 1017.49
1000.78 1001.03 1001.34 1001.69 1002.09 1002.52 1002.99 1003.49 1004.02 1004.57 1005.14 1005.70 1006.24 1006.75 1007.22 1007.64 1008.01 1008.34 1008.63 1008.91 1009.19 1009.48 1009.81 1010.16 1010.56 1011.00 1011.46 1011.95 1012.44 1012.95 1013.44 1013.94 1014.42 1014.90 1015.37 1015.83 1016.27 1016.71
999.16 999.38 999.65 999.97 1000.35 1000.77 1001.25 1001.77 1002.33 1002.93 1003.56 1004.19 1004.82 1005.42 1005.97 1006.48 1006.94 1007.35 1007.71 1008.05 1008.37 1008.70 1009.04 1009.42 1009.82 1010.25 1010.71 1011.19 1011.68 1012.18 1012.67 1013.16 1013.64 1014.11 1014.57 1015.02 1015.47 1015.90
997.39 997.56 997.79 998.08 998.43 998.84 999.32 999.86 1000.45 1001.10 1001.79 1002.50 1003.21 1003.90 1004.56 1005.17 1005.72 1006.22 1006.67 1007.09 1007.48 1007.87 1008.26 1008.67 1009.11 1009.56 1010.04 1010.53 1011.03 1011.52 1012.01 1012.49 1012.96 1013.41 1013.86 1014.30 1014.73 1015.15
995.66 995.76 995.94 996.18 996.49 996.88 997.35 997.89 998.51 999.20 999.93 1000.70 1001.48 1002.25 1002.99 1003.69 1004.34 1004.93 1005.48 1005.99 1006.48 1006.95 1007.42 1007.90 1008.39 1008.90 1009.41 1009.93 1010.45 1010.95 1011.45 1011.93 1012.39 1012.84 1013.27 1013.69 1014.11 1014.52
994.21 994.24 994.34 994.51 994.77 995.11 995.54 996.06 996.66 997.34 998.09 998.87 999.69 1000.50 1001.30 1002.06 1002.79 1003.47 1004.12 1004.73 1005.32 1005.89 1006.46 1007.03 1007.61 1008.19 1008.77 1009.34 1009.90 1010.44 1010.95 1011.44 1011.91 1012.36 1012.79 1013.20 1013.62 1014.03
993.30 993.23 993.23 993.31 993.47 993.73 994.08 994.52 995.06 995.69 996.38 997.13 997.92 998.73 999.54 1000.33 1001.10 1001.85 1002.57 1003.28 1003.97 1004.66 1005.34 1006.02 1006.71 1007.39 1008.05 1008.70 1009.32 1009.91 1010.46 1010.98 1011.46 1011.93 1012.37 1012.79 1013.22 1013.64
Thickness
5755 5753 5751 5749 5747 5745 5742 5737 5728 5719 5719 5723 5724 5725 5723 5721 5718 5715 5713 5711 5708 5706 5703 5701 5699 5697 5695 5693 5691 5689 5688 5686 5684 5683 5682 5681 5680 5678
5754 5752 5750 5748 5746 5744 5741 5737 5733 5726 5720 5723 5723 5723 5721 5719 5716 5713 5711 5708 5706 5703 5700 5698 5696 5693 5691 5689 5687 5685 5684 5682 5680 5679 5678 5676 5675 5674
5752 5750 5748 5747 5744 5742 5740 5736 5733 5728 5722 5722 5722 5721 5718 5715 5713 5710 5708 5705 5703 5700 5698 5695 5693 5690 5688 5686 5684 5681 5679 5678 5676 5675 5674 5672 5671 5669
5749 5748 5746 5745 5742 5740 5737 5734 5731 5728 5723 5718 5717 5716 5714 5712 5710 5707 5704 5701 5700 5698 5695 5692 5690 5687 5685 5683 5680 5678 5675 5673 5672 5670 5669 5668 5666 5665
5748 5745 5743 5741 5738 5737 5734 5732 5729 5727 5722 5717 5714 5713 5710 5709 5705 5703 5701 5698 5697 5695 5692 5689 5687 5684 5682 5679 5677 5674 5672 5670 5668 5666 5664 5663 5661 5660
5746 5744 5742 5739 5737 5734 5732 5729 5726 5722 5718 5714 5710 5708 5706 5704 5701 5697 5694 5694 5693 5692 5689 5686 5684 5681 5679 5676 5674 5671 5669 5666 5664 5662 5660 5658 5657 5655
5743 5742 5740 5739 5737 5734 5731 5727 5723 5718 5713 5709 5706 5703 5701 5698 5696 5694 5691 5689 5688 5687 5684 5683 5680 5677 5675 5673 5670 5668 5665 5662 5660 5658 5656 5654 5653 5651
5740 5739 5738 5735 5733 5731 5729 5726 5722 5716 5710 5706 5703 5700 5698 5697 5695 5691 5687 5682 5680 5684 5679 5678 5676 5673 5672 5669 5668 5665 5662 5659 5657 5654 5653 5650 5648 5647
5737 5735 5734 5733 5730 5727 5724 5722 5719 5716 5712 5707 5701 5699 5697 5696 5692 5688 5684 5681 5680 5681 5676 5673 5672 5669 5668 5666 5664 5662 5659 5656 5653 5651 5649 5647 5644 5642
5735 5732 5729 5727 5726 5722 5718 5716 5713 5712 5709 5706 5703 5701 5699 5696 5692 5688 5683 5680 5678 5676 5673 5667 5667 5665 5665 5663 5661 5658 5655 5653 5650 5648 5646 5643 5641 5638
5731 5729 5726 5723 5722 5718 5713 5710 5708 5707 5707 5704 5702 5699 5696 5693 5688 5682 5677 5672 5669 5669 5668 5664 5662 5660 5659 5658 5656 5654 5651 5649 5647 5645 5642 5639 5636 5633
5725 5724 5723 5720 5717 5713 5707 5704 5701 5701 5700 5698 5695 5693 5691 5688 5684 5680 5675 5669 5665 5663 5665 5660 5657 5653 5651 5653 5651 5649 5647 5644 5642 5640 5638 5635 5632 5627
5718 5717 5717 5714 5711 5708 5703 5700 5699 5696 5693 5691 5688 5686 5684 5682 5679 5676 5672 5668 5663 5660 5661 5656 5652 5649 5645 5645 5644 5644 5642 5640 5637 5635 5633 5630 5627 5623
5713 5713 5711 5709 5705 5702 5699 5697 5694 5690 5686 5683 5681 5679 5677 5675 5674 5672 5668 5665 5663 5660 5659 5654 5649 5645 5640 5638 5637 5637 5636 5634 5632 5630 5628 5625 5621 5618
5710 5708 5706 5703 5699 5696 5694 5692 5688 5683 5679 5677 5675 5674 5673 5672 5669 5665 5663 5660 5658 5656 5653 5650 5645 5641 5637 5634 5632 5630 5628 5628 5626 5624 5622 5619 5617 5614
5702 5700 5698 5695 5692 5690 5688 5685 5681 5678 5675 5672 5671 5669 5667 5663 5661 5658 5654 5651 5647 5646 5646 5644 5640 5636 5631 5630 5627 5625 5624 5621 5621 5619 5617 5615 5613 5611
5694 5690 5687 5684 5682 5680 5679 5677 5674 5671 5668 5666 5663 5661 5657 5655 5653 5650 5646 5643 5638 5637 5635 5634 5632 5630 5627 5625 5622 5620 5618 5616 5615 5613 5610 5609 5609 5607
5684 5681 5679 5676 5674 5672 5670 5668 5666 5663 5661 5658 5655 5652 5649 5647 5644 5642 5638 5634 5631 5629 5627 5626 5622 5620 5618 5618 5618 5616 5613 5611 5609 5607 5605 5603 5603 5603
5676 5675 5672 5670 5667 5665 5664 5662 5660 5658 5654 5650 5647 5645 5642 5639 5636 5633 5630 5626 5623 5621 5619 5617 5614 5610 5607 5608 5611 5610 5607 5606 5603 5602 5600 5598 5598 5599
5671 5669 5667 5664 5661 5659 5657 5655 5653 5650 5646 5643 5640 5637 5634 5631 5628 5625 5622 5618 5616 5614 5612 5610 5608 5605 5603 5603 5603 5603 5603 5600 5598 5596 5595 5593 5592 5593
5666 5663 5661 5657 5654 5651 5649 5647 5644 5641 5638 5635 5632 5629 5626 5623 5620 5618 5614 5612 5609 5606 5605 5604 5604 5603 5601 5597 5594 5595 5596 5596 5596 5593 5590 5586 5585 5584
5660 5657 5654 5651 5648 5644 5641 5637 5634 5631 5628 5625 5623 5621 5618 5615 5612 5610 5607 5604 5602 5600 5599 5599 5598 5595 5591 5589 5588 5588 5588 5588 5589 5588 5586 5585 5581 5580
5654 5651 5647 5644 5641 5637 5632 5628 5625 5623 5620 5617 5614 5612 5610 5607 5605 5602 5600 5598 5595 5592 5590 5588 5587 5585 5584 5582 5581 5580 5581 5580 5579 5578 5577 5578 5578 5578